Location: C�mpuri de-Sus
(45.9500°N, 22.5500°E)
Time: 12:03:26
(UTC+00:00)

SJ-11-01 - Pass Details

Date: 24 October 2021
Orbit: 684 x 700 km, 97.9° (Epoch: 07 December)

Event Time Altitude Azimuth Distance (km) Brightness Sun altitude
Rises 16:30:33 0° 156° (SSE) 3,046 7.4 -11.5°
Reaches altitude 10° 16:32:48 10° 153° (SSE) 2,137 6.6 -11.8°
Maximum altitude 16:37:25 63° 73° (ENE) 775 4.3 -12.6°
Drops below altitude 10° 16:42:05 10° 353° (N) 2,163 6.9 -13.5°
Sets 16:44:22 0° 350° (N) 3,088 7.7 -13.8°
